[Iaude] MPEC N24: 2024 NC [a=0.84,e=0.27,i=6.1,H=24.7]
    mpec at cfa.harvard.edu 
    mpec at cfa.harvard.edu
       
    Tue Jul  2 21:09:14 EDT 2024
    
    
  
M.P.E.C. 2024-N24                                  Issued 2024 July 3, 01:06 UT
     The Minor Planet Electronic Circulars contain information on unusual
         minor planets, routine data on comets and natural satellites,
         and occasional editorial announcements.  They are published
    on behalf of Division F of the International Astronomical Union by the
          Minor Planet Center, Smithsonian Astrophysical Observatory,
                          Cambridge, MA 02138, U.S.A.
			  
             Prepared using the Tamkin Foundation Computer Network
                              MPC at CFA.HARVARD.EDU
            URL https://www.minorplanetcenter.net/    ISSN 1523-6714
                                    2024 NC                                     
Observations:
     K24N00C* C2024 07 01.15686521 55 47.234-23 29 43.48         18.69oVEN024M22
     K24N00C  C2024 07 01.16085221 55 43.543-23 30 42.08         18.88oVEN024M22
     K24N00C  C2024 07 01.16621321 55 38.904-23 31 57.79         18.43oVEN024M22
     K24N00C  C2024 07 01.17638421 55 29.724-23 34 23.84         18.79oVEN024M22
     K24N00C  C2024 07 01.37677021 52 48.81 -24 23 26.7                WEN024X09
     K24N00C  C2024 07 01.37960021 52 46.19 -24 24 08.0                WEN024X09
     K24N00C KC2024 07 01.91077 21 45 32.70 -26 33 06.5          19.1 GVEN024M21
     K24N00C KC2024 07 01.92623 21 45 18.27 -26 37 00.4          19.0 GVEN024M21
     K24N00C  C2024 07 02.25548421 40 17.695-27 56 58.56         19.15oVEN024W68
     K24N00C  C2024 07 02.25730021 40 15.929-27 57 25.02         19.18oVEN024W68
     K24N00C  C2024 07 02.26016121 40 13.044-27 58 06.67         19.42oVEN024W68
     K24N00C  C2024 07 02.26707421 40 06.178-27 59 49.42         19.22oVEN024W68
     K24N00C |C2024 07 02.29841021 39 34.550-28 07 30.90         19.5 GVEN024807
     K24N00C |C2024 07 02.30041021 39 32.530-28 08 00.20         19.0 GVEN024807
     K24N00C |C2024 07 02.30246021 39 30.450-28 08 29.60         19.1 GVEN024807
     K24N00C |C2024 07 02.30447021 39 28.440-28 08 59.10         18.7 GVEN024807
     K24N00C KC2024 07 02.63181321 34 26.904-29 26 51.22         19.3 GVEN024474
     K24N00C KC2024 07 02.63293321 34 25.757-29 27 07.56         19.1 GVEN024474
     K24N00C KC2024 07 02.63629321 34 22.330-29 27 55.94         19.2 GVEN024474
     K24N00C KC2024 07 02.63741321 34 21.185-29 28 11.96         19.0 GVEN024474
Observer details:
474 Mount John Observatory, Lake Tekapo.  Observers A. C. Gilmore, P. M.
    Kilmartin.  Measurer P. M. Kilmartin.  0.6-m f/6.3 Reflector + CCD.
807 Cerro Tololo Observatory, La Serena.  Observers T. Linder, R. Holmes.
    0.61-m f/6.8 Ritchey-Chretien + CCD.
M21 Schiaparelli Southern Observatory, Hakos.  Observers A. Aletti, F.
    Bellini, L. Buzzi, G. Galli.  Measurers G. Galli, L. Buzzi.  0.36-m f/8.4
    reflector + CCD.
M22 ATLAS South Africa, Sutherland.  Observers L. Denneau, R. Siverd, J.
    Tonry, H. Weiland.  Measurers L. Denneau, N. Erasmus, A. Fitzsimmons, J.
    Robinson, R. Siverd, J. Tonry, H. Weiland.  0.5-m Reflector + CCD.
W68 ATLAS Chile, Rio Hurtado.  Observers L. Denneau, R. Siverd, J. Tonry, H.
    Weiland.  Measurers L. Denneau, N. Erasmus, A. Fitzsimmons, J. Robinson,
    R. Siverd, J. Tonry, H. Weiland.  0.5-m Reflector + CCD.
X09 Deep Random Survey, Rio Hurtado.  Observers A. Schnabel, D. Ruhela.
    Measurer S. Deen.  0.43-m reflector + CMOS.
Orbital elements:
2024 NC                                                  Earth MOID = 0.0109 AU
Epoch 2024 Mar. 31.0 TT = JDT 2460400.5                 Veres                   
M  30.82723              (2000.0)            P               Q                  
n   1.28843073     Peri.   21.59011     -0.48628534     -0.86733102             
a   0.8364282      Node    97.64419     +0.78520720     -0.48703542             
e   0.2694024      Incl.    6.14708     +0.38337477     -0.10263232             
P   0.76           H   24.79          G   0.15           U   7                  
Residuals in seconds of arc
240701 M22  0.3-  0.6+    240701 M21  0.4-  0.1+    240702 807  0.2-  0.2-
240701 M22  1.6-  0.9-    240702 W68  0.4+  0.1+    240702 807  0.1+  0.4-
240701 M22  1.0+  0.1+    240702 W68  1.1+  0.4+    240702 474  0.1-  0.1+
240701 M22  0.4+  0.6-    240702 W68  0.7+  1.0+    240702 474  0.1-  0.1-
240701 X09  0.5-  0.9+    240702 W68  1.4+  0.2+    240702 474  0.0   0.0
240701 X09  0.4-  0.5+    240702 807  0.1-  0.5-    240702 474  0.0   0.2+
240701 M21  0.1+  0.1-    240702 807  0.1-  0.7-
Ephemeris:
2024 NC                  a,e,i = 0.84, 0.27, 6                   q = 0.6111
Date    TT    R. A. (2000) Decl.     Delta      r    Elong.  Phase     V
2024 06 03    00 23 20.4 +27 18 58   0.09561 0.9683    58.8   116.3    24.2
...
2024 06 18    23 37 59.3 +13 20 08   0.05751 1.0143    86.7    90.1    21.8
...
2024 06 26    22 50 54.1 -04 35 46   0.04089 1.0326   112.2    65.7    20.2
...
2024 07 02    21 43 59.9 -26 55 14   0.03499 1.0435   139.4    39.4    19.2
2024 07 03    21 28 37.4 -30 55 29   0.03493 1.0451   143.7    35.2    19.0
2024 07 04    21 11 53.9 -34 47 04   0.03517 1.0466   147.5    31.4    19.0
...
2024 07 10    19 11 57.2 -50 49 25   0.04235 1.0540   151.4    27.5    19.3
...
2024 07 18    17 02 50.2 -54 24 32   0.06148 1.0600   134.2    43.4    20.5
...
2024 08 02    15 42 34.7 -50 50 38   0.1055  1.0590   112.0    62.7    22.3
M. P. C. Staff               (C) Copyright 2024 MPC           M.P.E.C. 2024-N24
    
    
More information about the Iaude
mailing list